Location: Mohawk View
(42.7837°N, 73.7885°W)
Time: 00:28:08
(UTC+00:00)

SL-4 R/B - Pass Details

Date: 17 June 2021
Orbit: 428 x 662 km, 51.6° (Epoch: 02 August)

Event Time Altitude Azimuth Distance (km) Brightness Sun altitude
Exits shadow 06:27:37 - 285° (WNW) 1,994 4.8 -20.6°
Reaches altitude 10° 06:28:31 10° 292° (WNW) 1,682 4.5 -20.5°
Maximum altitude 06:31:36 23° 347° (NNW) 1,038 4.0 -20.3°
Drops below altitude 10° 06:34:33 10° 42° (NE) 1,594 5.4 -20.0°
Sets 06:36:56 0° 58° (ENE) 2,439 6.3 -19.9°
